FW7278 Weather Reports


time (UTC)temp
F
wind
direction
speed
knots
gust
knots
rain 1hr
in
rain 24hr
in
rain mn
in
humidity
%
barometer
mb
20260906021607 82 0 0.0 0.0 0.00 0.00 0.00 68 1013.2
20260906020107 82 0 0.0 0.0 0.00 0.00 0.00 68 1013.0
20260906014558 82 0 0.0 0.0 0.00 0.00 0.00 68 1012.7
20260906013105 84 0 0.0 0.0 0.00 0.00 0.00 65 1012.6
20260906011604 85 0 0.0 0.0 0.00 0.00 0.00 62 1012.6
20260906010105 85 227 0.0 2.6 0.00 0.00 0.00 59 1012.5
20260906004603 86 227 0.9 3.5 0.00 0.00 0.00 59 1012.4
20260906003101 86 225 1.7 5.2 0.00 0.00 0.00 59 1012.2
20260906001559 86 215 0.9 5.2 0.00 0.00 0.00 57 1012.4
20260906000111 87 0 3.5 7.0 0.00 0.00 0.00 57 1012.6
20260905234620 87 211 2.6 7.8 0.00 0.00 0.00 56 1012.7
20260905233102 87 221 3.5 7.8 0.00 0.00 0.00 55 1012.8
20260905231605 87 268 3.5 8.7 0.00 0.00 0.00 55 1012.6
20260905230106 88 245 4.3 10.4 0.00 0.00 0.00 53 1012.8
20260905224616 88 213 3.5 9.6 0.00 0.00 0.00 52 1012.5
20260905223100 90 234 4.3 14.8 0.00 0.00 0.00 50 1012.7
20260905221602 91 241 6.1 10.4 0.00 0.00 0.00 49 1012.4
20260905220118 92 203 5.2 12.2 0.00 0.00 0.00 48 1012.6
20260905214603 92 201 3.5 10.4 0.00 0.00 0.00 49 1012.8
20260905213102 91 155 4.3 14.8 0.00 0.00 0.00 52 1012.7
20260905211556 90 202 11.3 17.4 0.00 0.00 0.00 53 1012.7
20260905210109 90 215 7.8 14.8 0.00 0.00 0.00 53 1013.3
20260905204559 94 196 8.7 23.5 0.00 0.00 0.00 45 1013.3
20260905203114 103 207 0.9 8.7 0.00 0.00 0.00 35 1012.9
20260905201603 103 345 1.7 4.3 0.00 0.00 0.00 38 1012.8
20260905200107 102 5 2.6 7.8 0.00 0.00 0.00 39 1013.1
20260905194558 103 355 2.6 8.7 0.00 0.00 0.00 38 1013.1
20260905193103 103 355 3.5 7.8 0.00 0.00 0.00 40 1013.4
20260905191605 102 44 2.6 8.7 0.00 0.00 0.00 39 1013.5
20260905184611 101 24 3.5 8.7 0.00 0.00 0.00 39 1014.1
20260905183057 100 352 2.6 10.4 0.00 0.00 0.00 41 1014.1
20260905181603 99 302 2.6 8.7 0.00 0.00 0.00 44 1014.2
20260905180105 99 360 4.3 8.7 0.00 0.00 0.00 46 1014.3
20260905174604 98 284 3.5 7.8 0.00 0.00 0.00 47 1014.4
20260905173105 98 273 5.2 7.8 0.00 0.00 0.00 46 1014.6
20260905171635 98 277 2.6 7.8 0.00 0.00 0.00 46 1014.9
20260905170107 97 0 1.7 7.8 0.00 0.00 0.00 48 1015.1
20260905164605 97 346 2.6 7.8 0.00 0.00 0.00 48 1015.2
20260905163058 96 254 1.7 8.7 0.00 0.00 0.00 48 1015.2
20260905161601 95 321 1.7 7.8 0.00 0.00 0.00 48 1015.3
20260905160109 93 310 3.5 7.8 0.00 0.00 0.00 52 1015.4
20260905154648 91 281 1.7 7.0 0.00 0.00 0.00 57 1015.5
20260905153104 90 270 1.7 4.3 0.00 0.00 0.00 61 1015.7
20260905151604 88 180 0.0 3.5 0.00 0.00 0.00 63 1015.7
20260905150105 87 0 0.9 4.3 0.00 0.00 0.00 64 1015.4
20260905144610 87 0 0.0 4.3 0.00 0.00 0.00 63 1015.4
20260905143106 87 286 3.5 7.0 0.00 0.00 0.00 62 1015.4
20260905141601 85 188 4.3 7.8 0.00 0.00 0.00 65 1015.4
20260905140105 83 154 2.6 6.1 0.00 0.00 0.00 68 1015.5
20260905134608 82 200 2.6 7.0 0.00 0.00 0.00 70 1015.5
20260905133103 81 178 2.6 7.0 0.00 0.00 0.00 75 1015.3
20260905131559 80 215 1.7 5.2 0.00 0.00 0.00 78 1015.2
20260905130101 80 165 1.7 5.2 0.00 0.00 0.00 79 1015.4
20260905124602 79 191 1.7 4.3 0.00 0.00 0.00 79 1015.1
20260905123105 79 166 0.0 2.6 0.00 0.00 0.00 81 1015.1
20260905121608 79 154 0.0 1.7 0.00 0.00 0.00 80 1015.0
20260905114607 79 205 0.0 0.0 0.00 0.00 0.00 78 1014.7
20260905113100 79 205 0.0 1.7 0.00 0.00 0.00 77 1014.5
20260905111625 79 205 0.9 3.5 0.00 0.00 0.00 76 1014.5
20260905110112 79 0 0.0 0.0 0.00 0.00 0.00 78 1014.4
20260905104618 79 0 0.0 1.7 0.00 0.00 0.00 78 1014.4
20260905103055 80 204 0.0 2.6 0.00 0.00 0.00 79 1014.5
20260905101557 80 0 0.9 3.5 0.00 0.00 0.00 78 1014.5
20260905100056 80 215 0.9 5.2 0.00 0.00 0.00 77 1014.3
20260905094715 80 178 0.9 3.5 0.00 0.00 0.00 77 1014.3
20260905093116 80 0 0.0 2.6 0.00 0.00 0.00 76 1014.4
20260905091604 80 178 0.9 2.6 0.00 0.00 0.00 76 1014.3
20260905090103 80 178 0.9 3.5 0.00 0.00 0.00 77 1014.3
20260905084608 80 0 0.0 0.0 0.00 0.00 0.00 76 1014.3
20260905083056 80 0 0.0 0.0 0.00 0.00 0.00 75 1014.4
20260905081603 81 0 0.0 0.9 0.00 0.00 0.00 74 1014.3
20260905080121 81 0 0.0 0.0 0.00 0.00 0.00 72 1014.4
20260905074605 82 0 0.0 3.5 0.00 0.00 0.00 72 1014.4
20260905073109 82 211 0.9 3.5 0.00 0.00 0.00 71 1014.4
20260905071602 82 190 0.9 4.3 0.00 0.00 0.00 70 1014.5
20260905070104 83 178 3.5 5.2 0.00 0.00 0.00 70 1014.6
20260905064600 83 151 1.7 5.2 0.00 0.00 0.00 69 1014.7
20260905063108 83 168 0.9 4.3 0.00 0.00 0.00 68 1014.7
20260905061613 83 146 1.7 4.3 0.00 0.00 0.00 68 1014.7
20260905060113 83 170 0.9 5.2 0.00 0.00 0.00 67 1014.9
20260905054608 84 0 0.9 4.3 0.00 0.00 0.00 66 1014.8
20260905053104 84 171 1.7 5.2 0.00 0.00 0.00 66 1014.8
20260905051609 84 196 2.6 5.2 0.00 0.00 0.00 66 1014.9
20260905050104 84 159 1.7 6.1 0.00 0.00 0.00 66 1014.9
20260905044604 85 0 0.9 5.2 0.00 0.00 0.00 65 1014.9
20260905043101 85 161 2.6 5.2 0.00 0.00 0.00 64 1014.9
20260905041607 85 157 1.7 4.3 0.00 0.00 0.00 63 1014.8
20260905040112 85 187 0.9 3.5 0.00 0.00 0.00 63 1014.9
20260905034607 85 187 0.9 4.3 0.00 0.00 0.00 62 1014.9
20260905033107 85 187 0.9 3.5 0.00 0.00 0.00 62 1015.0
20260905031555 86 188 0.9 3.5 0.00 0.00 0.00 62 1015.1
20260905030111 86 0 0.0 3.5 0.00 0.00 0.00 62 1015.2
20260905024612 87 194 0.9 3.5 0.00 0.00 0.00 62 1015.1
20260905023107 87 194 0.9 3.5 0.00 0.00 0.00 62 1015.1